Retour au catalogue

ARIANE 2 DEB

LostGTO
NORAD 23243·DEBRIS·🇫🇷 France

Lancé Apr 2, 1989 depuis Guiana Space Centre

Loading…

TLE

PériméSource: Space-Track

Époque: Jan 8, 2026, 04:39 UTC

1 23243U 89027C   26008.19385668  .00001118  00000-0  14922-1 0  9992
2 23243   2.3102 151.2004 7189803 259.7327  19.0497  2.22861872 51068

Suivez ARIANE 2 DEB en temps réel avec AllMySat

Download on the App Store